K9UO Weather Reports


time (UTC)temp
C
wind
direction
speed
KPH
gust
KPH
rain 1hr
cm
rain 24hr
cm
rain mn
cm
humidity
%
barometer
mb
20260902212014 33 194 6.4 17.7 0.00 0.00 0.00 59 1015.4
20260902211533 33 203 6.4 17.7 0.00 0.00 0.00 59 1015.4
20260902211016 33 218 8.0 14.5 0.00 0.00 0.00 57 1015.5
20260902210517 33 136 4.8 11.3 0.00 0.00 0.00 59 1015.5
20260902210012 33 177 4.8 17.7 0.00 0.00 0.00 61 1015.5
20260902205507 33 187 8.0 17.7 0.00 0.00 0.00 57 1015.5
20260902205008 33 211 6.4 14.5 0.00 0.00 0.00 59 1015.6
20260902204536 33 170 4.8 16.1 0.00 0.00 0.00 60 1015.6
20260902204013 33 206 6.4 16.1 0.00 0.00 0.00 58 1015.7
20260902203510 33 204 6.4 12.9 0.00 0.00 0.00 58 1015.7
20260902203027 33 180 4.8 14.5 0.00 0.00 0.00 59 1015.8
20260902202513 33 200 6.4 19.3 0.00 0.00 0.00 58 1015.9
20260902202015 33 187 6.4 19.3 0.00 0.00 0.00 58 1016.0
20260902201533 33 196 6.4 17.7 0.00 0.00 0.00 59 1016.1
20260902201016 33 185 6.4 14.5 0.00 0.00 0.00 59 1016.1
20260902200519 33 201 8.0 14.5 0.00 0.00 0.00 57 1016.2
20260902200031 33 171 4.8 12.9 0.00 0.00 0.00 57 1016.3
20260902195519 33 222 8.0 14.5 0.00 0.00 0.00 58 1016.3
20260902195007 33 214 6.4 14.5 0.00 0.00 0.00 58 1016.3
20260902194518 33 211 4.8 14.5 0.00 0.00 0.00 56 1016.3
20260902194014 33 176 4.8 14.5 0.00 0.00 0.00 57 1016.3
20260902193512 33 206 8.0 14.5 0.00 0.00 0.00 58 1016.4
20260902193026 33 217 4.8 14.5 0.00 0.00 0.00 60 1016.4
20260902192513 33 240 6.4 17.7 0.00 0.00 0.00 57 1016.5
20260902192015 33 216 4.8 17.7 0.00 0.00 0.00 58 1016.5
20260902191532 33 167 4.8 11.3 0.00 0.00 0.00 59 1016.5
20260902191014 33 240 6.4 17.7 0.00 0.00 0.00 57 1016.6
20260902190517 33 246 8.0 17.7 0.00 0.00 0.00 58 1016.8
20260902190035 33 175 6.4 17.7 0.00 0.00 0.00 60 1016.8
20260902185519 33 174 3.2 14.5 0.00 0.00 0.00 59 1016.9
20260902185016 33 206 4.8 12.9 0.00 0.00 0.00 58 1016.8
20260902184536 33 209 3.2 14.5 0.00 0.00 0.00 59 1016.9
20260902184007 33 168 4.8 19.3 0.00 0.00 0.00 57 1016.8
20260902183508 33 202 6.4 19.3 0.00 0.00 0.00 58 1016.8
20260902183031 33 182 6.4 11.3 0.00 0.00 0.00 58 1017.0
20260902182511 33 234 6.4 14.5 0.00 0.00 0.00 58 1017.1
20260902182012 33 203 6.4 14.5 0.00 0.00 0.00 61 1017.2
20260902181528 33 203 4.8 16.1 0.00 0.00 0.00 59 1017.2
20260902181016 33 233 3.2 16.1 0.00 0.00 0.00 60 1017.1
20260902180514 33 205 4.8 12.9 0.00 0.00 0.00 60 1017.1
20260902180030 33 236 4.8 12.9 0.00 0.00 0.00 58 1017.2
20260902175517 32 211 4.8 14.5 0.00 0.00 0.00 60 1017.2
20260902175016 32 196 4.8 14.5 0.00 0.00 0.00 59 1017.3
20260902174534 32 194 6.4 12.9 0.00 0.00 0.00 60 1017.3
20260902174008 32 245 3.2 11.3 0.00 0.00 0.00 57 1017.4
20260902173508 32 187 4.8 14.5 0.00 0.00 0.00 58 1017.5
20260902173019 32 213 6.4 14.5 0.00 0.00 0.00 58 1017.6
20260902172511 32 217 6.4 11.3 0.00 0.00 0.00 59 1017.6
20260902172010 32 176 3.2 11.3 0.00 0.00 0.00 60 1017.6
20260902171502 32 195 3.2 11.3 0.00 0.00 0.00 61 1017.7
20260902171004 32 228 6.4 11.3 0.00 0.00 0.00 59 1017.8
20260902170503 32 257 4.8 11.3 0.00 0.00 0.00 61 1017.8
20260902170010 32 186 3.2 9.7 0.00 0.00 0.00 58 1017.8
20260902165504 32 209 3.2 9.7 0.00 0.00 0.00 62 1017.8
20260902165007 32 242 4.8 8.0 0.00 0.00 0.00 58 1017.8
20260902164517 32 263 3.2 11.3 0.00 0.00 0.00 62 1017.8
20260902164005 32 242 4.8 14.5 0.00 0.00 0.00 62 1017.9
20260902163508 32 242 4.8 14.5 0.00 0.00 0.00 63 1017.9
20260902163018 32 225 3.2 9.7 0.00 0.00 0.00 63 1017.9
20260902162508 31 279 3.2 9.7 0.00 0.00 0.00 60 1018.0
20260902162012 31 198 3.2 9.7 0.00 0.00 0.00 63 1018.0
20260902161524 31 198 4.8 11.3 0.00 0.00 0.00 62 1018.0
20260902161015 31 269 3.2 11.3 0.00 0.00 0.00 66 1018.0
20260902160503 31 205 3.2 12.9 0.00 0.00 0.00 62 1018.0
20260902160005 31 167 4.8 14.5 0.00 0.00 0.00 64 1018.0
20260902155503 31 173 4.8 14.5 0.00 0.00 0.00 65 1018.1
20260902155003 31 204 4.8 12.9 0.00 0.00 0.00 65 1018.0
20260902154507 31 211 4.8 14.5 0.00 0.00 0.00 64 1018.0
20260902154007 31 215 4.8 14.5 0.00 0.00 0.00 67 1018.1
20260902153507 30 252 6.4 12.9 0.00 0.00 0.00 66 1018.0
20260902153018 30 294 4.8 11.3 0.00 0.00 0.00 67 1018.0
20260902152507 30 284 6.4 11.3 0.00 0.00 0.00 66 1018.0
20260902152008 30 206 3.2 9.7 0.00 0.00 0.00 69 1017.9
20260902151523 30 229 3.2 9.7 0.00 0.00 0.00 68 1017.9
20260902151011 30 267 3.2 12.9 0.00 0.00 0.00 68 1017.9
20260902150513 30 231 4.8 12.9 0.00 0.00 0.00 70 1017.9
20260902150027 30 195 3.2 11.3 0.00 0.00 0.00 70 1017.9
20260902145503 29 217 3.2 11.3 0.00 0.00 0.00 68 1018.0
20260902145003 29 196 4.8 9.7 0.00 0.00 0.00 70 1018.0
20260902144507 29 344 3.2 11.3 0.00 0.00 0.00 69 1017.9
20260902144005 29 239 4.8 11.3 0.00 0.00 0.00 69 1018.0
20260902143504 29 243 3.2 11.3 0.00 0.00 0.00 71 1017.9
20260902143012 28 217 3.2 11.3 0.00 0.00 0.00 70 1018.0
20260902142508 28 192 4.8 11.3 0.00 0.00 0.00 70 1018.0
20260902142011 28 238 4.8 11.3 0.00 0.00 0.00 70 1018.1
20260902141524 28 213 3.2 12.9 0.00 0.00 0.00 71 1018.0
20260902141012 28 240 6.4 12.9 0.00 0.00 0.00 70 1018.1
20260902140511 28 250 4.8 11.3 0.00 0.00 0.00 70 1018.2
20260902140034 28 184 3.2 9.7 0.00 0.00 0.00 71 1018.2
20260902135512 28 231 4.8 8.0 0.00 0.00 0.00 70 1018.2
20260902135015 28 221 3.2 9.7 0.00 0.00 0.00 71 1018.2
20260902134507 28 255 3.2 9.7 0.00 0.00 0.00 71 1018.3
20260902134003 28 182 4.8 9.7 0.00 0.00 0.00 71 1018.2
20260902133503 27 248 3.2 8.0 0.00 0.00 0.00 71 1018.1
20260902133012 27 215 3.2 11.3 0.00 0.00 0.00 72 1018.2
20260902132509 27 223 4.8 9.7 0.00 0.00 0.00 73 1018.2
20260902132006 27 248 4.8 11.3 0.00 0.00 0.00 73 1018.1
20260902131517 27 208 4.8 12.9 0.00 0.00 0.00 73 1018.2
20260902131007 27 261 4.8 12.9 0.00 0.00 0.00 73 1018.1
20260902130512 26 273 1.6 8.0 0.00 0.00 0.00 77 1018.1
20260902130025 26 352 3.2 6.4 0.00 0.00 0.00 76 1018.1
20260902125513 26 295 3.2 8.0 0.00 0.00 0.00 78 1018.2
20260902125013 25 232 1.6 8.0 0.00 0.00 0.00 78 1018.1
20260902124533 25 231 1.6 6.4 0.00 0.00 0.00 78 1018.2
20260902124016 25 219 3.2 6.4 0.00 0.00 0.00 81 1018.2
20260902123504 25 261 3.2 6.4 0.00 0.00 0.00 81 1018.2
20260902123008 24 227 1.6 6.4 0.00 0.00 0.00 82 1018.2
20260902122505 24 195 3.2 6.4 0.00 0.00 0.00 82 1018.3
20260902122007 23 198 1.6 6.4 0.00 0.00 0.00 83 1018.3
20260902121512 23 232 1.6 6.4 0.00 0.00 0.00 84 1018.3
20260902121007 23 221 1.6 4.8 0.00 0.00 0.00 84 1018.3
20260902120508 23 220 1.6 3.2 0.00 0.00 0.00 84 1018.3
20260902120022 23 251 1.6 3.2 0.00 0.00 0.00 84 1018.3
20260902115511 23 205 0.0 3.2 0.00 0.00 0.00 84 1018.2
20260902115013 23 200 1.6 4.8 0.00 0.00 0.00 84 1018.1
20260902114529 23 206 1.6 4.8 0.00 0.00 0.00 84 1018.0
20260902114016 23 209 1.6 3.2 0.00 0.00 0.00 84 1017.9
20260902113513 23 206 1.6 3.2 0.00 0.00 0.00 84 1017.9
20260902113034 23 206 1.6 4.8 0.00 0.00 0.00 84 1017.8
20260902112503 23 199 0.0 4.8 0.00 0.00 0.00 84 1017.8
20260902112006 23 210 0.0 3.2 0.00 0.00 0.00 84 1017.8
20260902111511 23 210 1.6 3.2 0.00 0.00 0.00 84 1017.8
20260902111008 23 210 1.6 3.2 0.00 0.00 0.00 84 1017.7
20260902110507 23 210 0.0 3.2 0.00 0.00 0.00 84 1017.6
20260902110019 23 208 1.6 3.2 0.00 0.00 0.00 84 1017.6
20260902105510 23 197 0.0 3.2 0.00 0.00 0.00 84 1017.6
20260902105013 23 197 1.6 3.2 0.00 0.00 0.00 84 1017.5
20260902104523 23 197 0.0 3.2 0.00 0.00 0.00 84 1017.4
20260902104012 23 197 1.6 3.2 0.00 0.00 0.00 83 1017.3
20260902103512 23 192 1.6 4.8 0.00 0.00 0.00 83 1017.3
20260902103037 23 210 3.2 4.8 0.00 0.00 0.00 83 1017.3
20260902102516 23 198 3.2 4.8 0.00 0.00 0.00 83 1017.3
20260902102017 23 202 3.2 4.8 0.00 0.00 0.00 83 1017.3
20260902101520 23 201 1.6 3.2 0.00 0.00 0.00 83 1017.3
20260902101007 23 217 1.6 4.8 0.00 0.00 0.00 83 1017.2
20260902100507 23 210 3.2 4.8 0.00 0.00 0.00 82 1017.2
20260902100016 23 188 3.2 4.8 0.00 0.00 0.00 82 1017.2
20260902095510 23 209 1.6 4.8 0.00 0.00 0.00 82 1017.1
20260902095012 23 216 3.2 4.8 0.00 0.00 0.00 82 1017.1
20260902094524 23 213 3.2 6.4 0.00 0.00 0.00 82 1017.1
20260902094012 23 198 3.2 8.0 0.00 0.00 0.00 82 1017.1
20260902093513 23 217 3.2 8.0 0.00 0.00 0.00 82 1017.2
20260902093036 23 200 1.6 4.8 0.00 0.00 0.00 82 1017.2
20260902092512 23 202 3.2 4.8 0.00 0.00 0.00 82 1017.2
20260902092013 23 196 1.6 4.8 0.00 0.00 0.00 82 1017.2
20260902091537 23 214 3.2 4.8 0.00 0.00 0.00 82 1017.1
20260902091016 23 205 1.6 4.8 0.00 0.00 0.00 82 1017.1
20260902090504 23 202 3.2 4.8 0.00 0.00 0.00 83 1017.1
20260902090014 23 199 3.2 4.8 0.00 0.00 0.00 83 1017.1
20260902085511 23 196 1.6 4.8 0.00 0.00 0.00 83 1017.1
20260902085007 23 201 3.2 4.8 0.00 0.00 0.00 83 1017.1
20260902084530 23 219 3.2 4.8 0.00 0.00 0.00 83 1017.0
20260902084009 23 220 1.6 4.8 0.00 0.00 0.00 83 1017.0
20260902083517 23 209 1.6 3.2 0.00 0.00 0.00 83 1017.1
20260902083038 23 206 1.6 3.2 0.00 0.00 0.00 83 1017.0
20260902082515 24 213 1.6 3.2 0.00 0.00 0.00 83 1016.9
20260902082015 24 221 1.6 4.8 0.00 0.00 0.00 83 1016.9
20260902081531 24 213 1.6 4.8 0.00 0.00 0.00 83 1016.9
20260902081014 24 212 1.6 4.8 0.00 0.00 0.00 83 1016.9
20260902080515 24 212 1.6 3.2 0.00 0.00 0.00 83 1016.9
20260902080032 24 206 1.6 3.2 0.00 0.00 0.00 83 1016.8
20260902075505 24 211 1.6 3.2 0.00 0.00 0.00 83 1016.8
20260902075007 24 210 1.6 3.2 0.00 0.00 0.00 83 1016.8
20260902074516 24 215 1.6 3.2 0.00 0.00 0.00 83 1016.8
20260902074011 24 215 1.6 3.2 0.00 0.00 0.00 83 1016.7
20260902073511 24 215 1.6 3.2 0.00 0.00 0.00 83 1016.8
20260902073026 24 208 1.6 4.8 0.00 0.00 0.00 83 1016.8
20260902072512 24 227 3.2 4.8 0.00 0.00 0.00 83 1016.9
20260902072014 24 217 1.6 4.8 0.00 0.00 0.00 83 1016.9
20260902071535 24 208 3.2 6.4 0.00 0.00 0.00 1016.9
20260902071020 25 229 3.2 6.4 0.00 0.00 0.00 83 1016.9
20260902070513 25 198 1.6 4.8 0.00 0.00 0.00 83 1016.8
20260902070034 25 221 3.2 4.8 0.00 0.00 0.00 83 1016.8
20260902065515 25 213 1.6 6.4 0.00 0.00 0.00 83 1016.8
20260902065019 25 216 1.6 6.4 0.00 0.00 0.00 83 1016.8
20260902064516 25 221 1.6 4.8 0.00 0.00 0.00 83 1016.9
20260902064008 25 216 1.6 8.0 0.00 0.00 0.00 82 1017.0
20260902063509 25 212 1.6 8.0 0.00 0.00 0.00 82 1016.9
20260902063027 25 216 3.2 4.8 0.00 0.00 0.00 82 1017.0
20260902062512 25 205 1.6 3.2 0.00 0.00 0.00 82 1017.1
20260902062017 25 205 1.6 3.2 0.00 0.00 0.00 82 1017.1
20260902061541 25 205 0.0 3.2 0.00 0.00 0.00 82 1017.1
20260902061018 25 219 1.6 3.2 0.00 0.00 0.00 82 1017.2
20260902060515 25 212 1.6 3.2 0.00 0.00 0.00 81 1017.1
20260902060033 25 222 1.6 6.4 0.00 0.00 0.00 81 1017.1
20260902055520 25 206 1.6 6.4 0.00 0.00 0.00 81 1017.1
20260902055019 25 226 1.6 4.8 0.00 0.00 0.00 81 1017.1
20260902054537 25 198 3.2 4.8 0.00 0.00 0.00 81 1017.1
20260902054007 25 196 1.6 6.4 0.00 0.00 0.00 81 1017.2
20260902053508 25 200 3.2 8.0 0.00 0.00 0.00 82 1017.1
20260902053020 25 215 4.8 8.0 0.00 0.00 0.00 82 1017.1
20260902052514 25 210 4.8 6.4 0.00 0.00 0.00 83 1017.0
20260902052011 25 219 3.2 6.4 0.00 0.00 0.00 83 1017.0
20260902051504 25 189 3.2 4.8 0.00 0.00 0.00 83 1017.0
20260902051005 25 201 3.2 4.8 0.00 0.00 0.00 83 1017.0
20260902050504 25 190 1.6 3.2 0.00 0.00 0.00 83 1016.9
20260902050004 25 196 0.0 3.2 0.00 0.00 0.00 84 1017.0
20260902045503 25 196 1.6 3.2 0.00 0.00 0.00 84 1017.0
20260902045007 25 196 1.6 4.8 0.00 0.00 0.00 83 1017.0
20260902044512 25 205 1.6 4.8 0.00 0.00 0.00 84 1017.0
20260902044007 25 202 1.6 4.8 0.00 0.00 0.00 83 1017.0
20260902043509 25 208 1.6 4.8 0.00 0.00 0.00 83 1017.0
20260902043017 25 212 0.0 4.8 0.00 0.00 0.00 83 1017.0
20260902042511 25 209 1.6 6.4 0.00 0.00 0.00 83 1017.0
20260902042009 25 214 1.6 6.4 0.00 0.00 0.00 83 1017.0
20260902041523 25 203 1.6 4.8 0.00 0.00 0.00 83 1016.9
20260902041013 25 201 1.6 4.8 0.00 0.00 0.00 83 1016.9
20260902040503 25 200 1.6 4.8 0.00 0.00 0.00 83 1016.9
20260902040006 25 200 3.2 4.8 0.00 0.00 0.00 83 1016.9
20260902035503 25 223 1.6 4.8 0.00 0.00 0.00 83 1017.0
20260902035005 25 190 1.6 3.2 0.00 0.00 0.00 82 1016.9
20260902034511 26 207 1.6 4.8 0.00 0.00 0.00 82 1017.0
20260902034006 26 198 1.6 4.8 0.00 0.00 0.00 82 1017.0
20260902033506 26 225 0.0 3.2 0.00 0.00 0.00 81 1017.0
20260902033015 26 225 1.6 3.2 0.00 0.00 0.00 80 1017.0
20260902032509 26 225 1.6 3.2 0.00 0.00 0.00 80 1017.0
20260902032013 26 225 1.6 4.8 0.00 0.00 0.00 80 1017.1
20260902031523 26 223 1.6 4.8 0.00 0.00 0.00 80 1017.0
20260902031013 26 205 3.2 4.8 0.00 0.00 0.00 80 1017.0
20260902030513 26 204 1.6 6.4 0.00 0.00 0.00 80 1017.1
20260902030027 26 217 3.2 6.4 0.00 0.00 0.00 80 1017.1
20260902025503 26 209 1.6 4.8 0.00 0.00 0.00 79 1017.2
20260902025004 26 196 3.2 4.8 0.00 0.00 0.00 79 1017.2
20260902024516 26 202 3.2 6.4 0.00 0.00 0.00 79 1017.2
20260902024006 26 218 3.2 6.4 0.00 0.00 0.00 80 1017.1
20260902023503 26 210 1.6 4.8 0.00 0.00 0.00 80 1017.1
20260902023013 26 190 1.6 3.2 0.00 0.00 0.00 80 1017.1
20260902022507 26 202 1.6 3.2 0.00 0.00 0.00 80 1017.1
20260902022008 26 194 1.6 4.8 0.00 0.00 0.00 79 1017.0
20260902021516 26 200 1.6 4.8 0.00 0.00 0.00 79 1017.0
20260902021008 26 197 3.2 4.8 0.00 0.00 0.00 79 1017.0
20260902020512 27 211 0.0 3.2 0.00 0.00 0.00 78 1016.9
20260902020025 27 211 0.0 3.2 0.00 0.00 0.00 78 1016.9
20260902015514 27 208 1.6 3.2 0.00 0.00 0.00 78 1016.9
20260902015016 27 209 1.6 3.2 0.00 0.00 0.00 77 1016.9
20260902014504 27 209 1.6 3.2 0.00 0.00 0.00 77 1016.8
20260902014004 27 209 1.6 3.2 0.00 0.00 0.00 77 1016.8
20260902013504 27 215 0.0 3.2 0.00 0.00 0.00 77 1016.8
20260902013010 27 215 0.0 3.2 0.00 0.00 0.00 76 1016.8
20260902012509 27 219 0.0 3.2 0.00 0.00 0.00 76 1016.7
20260902012006 27 232 0.0 3.2 0.00 0.00 0.00 76 1016.6
20260902011515 27 215 1.6 3.2 0.00 0.00 0.00 76 1016.6
20260902011012 27 205 1.6 3.2 0.00 0.00 0.00 75 1016.5
20260902010511 27 225 1.6 3.2 0.00 0.00 0.00 75 1016.5
20260902010024 27 205 1.6 3.2 0.00 0.00 0.00 75 1016.4
20260902005513 27 211 0.0 3.2 0.00 0.00 0.00 75 1016.4
20260902005013 28 209 1.6 3.2 0.00 0.00 0.00 75 1016.3
20260902004530 28 207 1.6 3.2 0.00 0.00 0.00 74 1016.3
20260902004015 28 207 1.6 3.2 0.00 0.00 0.00 74 1016.3
20260902003503 28 198 1.6 3.2 0.00 0.00 0.00 73 1016.3
20260902003007 28 209 0.0 3.2 0.00 0.00 0.00 73 1016.3
20260902002504 28 214 1.6 1.6 0.00 0.00 0.00 72 1016.2
20260902002002 28 214 1.6 3.2 0.00 0.00 0.00 72 1016.3
20260902001515 29 214 0.0 3.2 0.00 0.00 0.00 72 1016.3
20260902001009 29 214 0.0 4.8 0.00 0.00 0.00 71 1016.4
20260902000507 29 223 1.6 4.8 0.00 0.00 0.00 71 1016.4
20260902000020 29 221 1.6 4.8 0.00 0.00 0.00 70 1016.4
20260901235511 30 206 1.6 3.2 0.00 0.00 0.00 70 1016.5
20260901235011 30 209 1.6 4.8 0.00 0.00 0.00 69 1016.4
20260901234527 30 222 1.6 4.8 0.00 0.00 0.00 69 1016.4
20260901234012 30 215 1.6 3.2 0.00 0.00 0.00 68 1016.5
20260901233513 30 208 1.6 4.8 0.00 0.00 0.00 68 1016.4
20260901233032 31 207 1.6 4.8 0.00 0.00 0.00 67 1016.5
20260901232503 31 183 1.6 8.0 0.00 0.00 0.00 67 1016.5
20260901232003 31 205 3.2 8.0 0.00 0.00 0.00 66 1016.5
20260901231511 31 232 3.2 8.0 0.00 0.00 0.00 64 1016.5
20260901231009 31 200 3.2 6.4 0.00 0.00 0.00 64 1016.5
20260901230507 32 190 3.2 6.4 0.00 0.00 0.00 64 1016.6
20260901230020 32 194 3.2 8.0 0.00 0.00 0.00 63 1016.6
20260901225508 32 196 3.2 8.0 0.00 0.00 0.00 63 1016.6
20260901225010 32 187 3.2 6.4 0.00 0.00 0.00 63 1016.5
20260901224525 32 202 3.2 6.4 0.00 0.00 0.00 62 1016.5
20260901224012 32 207 3.2 6.4 0.00 0.00 0.00 61 1016.5
20260901223514 32 194 3.2 6.4 0.00 0.00 0.00 61 1016.4
20260901223040 32 163 3.2 6.4 0.00 0.00 0.00 61 1016.4
20260901222515 33 213 3.2 9.7 0.00 0.00 0.00 61 1016.3
20260901222019 33 217 3.2 9.7 0.00 0.00 0.00 62 1016.4
20260901221508 33 203 1.6 8.0 0.00 0.00 0.00 59 1016.3
20260901221004 33 196 3.2 6.4 0.00 0.00 0.00 61 1016.3
20260901220507 33 214 3.2 8.0 0.00 0.00 0.00 59 1016.3
20260901220024 33 173 3.2 9.7 0.00 0.00 0.00 59 1016.3
20260901215507 33 194 3.2 9.7 0.00 0.00 0.00 58 1016.3
20260901215010 33 191 4.8 8.0 0.00 0.00 0.00 60 1016.3
20260901214522 33 182 3.2 8.0 0.00 0.00 0.00 59 1016.4
20260901214010 33 205 3.2 8.0 0.00 0.00 0.00 60 1016.4
20260901213512 33 194 3.2 12.9 0.00 0.00 0.00 60 1016.4
20260901213035 33 206 4.8 12.9 0.00 0.00 0.00 56 1016.4
20260901212512 33 226 3.2 9.7 0.00 0.00 0.00 57 1016.4